Wind_Speed
2 13 17 18 19 20 15 11 15 4 22 27 28 29 31 33 33 33 32 32 32 31 32 33 35 37 38 40 37 36 34 35 30 27 28 31 39 43 44 39 41 46 46
7 10 17 20 24 24 24 20 15 18 7 18 24 19 18 23 31 31 29 29 30 30 31 33 36 37 38 37 36 34 30 28 25 17 14 7 17 28 34 37 40 42 38
7 8 12 18 22 25 25 25 22 21 19 8 9 12 11 9 11 14 18 21 22 25 28 31 36 37 36 36 34 33 30 27 27 29 15 3 6 2 13 20 24 29 33
6 6 8 17 20 22 25 26 27 27 26 21 18 16 12 9 10 11 11 12 12 14 16 20 26 33 35 35 38 35 33 28 25 24 30 35 26 7 10 20 18 22 29
6 6 6 13 17 20 23 24 26 28 27 27 25 23 21 18 16 17 18 18 18 18 19 20 20 19 26 32 33 34 30 29 28 27 25 23 27 31 12 12 12 25 30
6 5 8 13 16 17 19 21 24 25 24 24 24 24 23 21 22 21 21 22 22 22 24 25 25 23 22 22 26 30 30 30 30 30 29 26 12 9 10 11 13 15 29
6 6 6 7 11 14 16 16 19 22 22 23 25 24 22 21 21 20 21 22 25 25 26 27 27 28 28 27 26 25 26 30 30 31 30 30 28 28 30 21 13 12 23
6 6 6 6 8 10 12 16 19 21 21 22 21 20 19 20 20 21 22 22 24 25 27 27 28 28 29 30 31 31 30 27 27 28 29 29 29 31 32 26 15 15 14
7 7 6 7 7 12 15 17 18 20 22 23 22 22 22 22 22 22 22 25 26 28 30 31 31 31 31 31 32 31 31 31 29 31 30 28 27 28 28 28 28 15 17
6 5 4 5 10 16 17 18 18 19 19 19 20 20 20 21 22 23 25 28 30 31 31 31 31 31 32 33 33 31 31 31 31 29 30 31 28 28 26 27 28 28 18
7 6 4 10 17 16 17 17 17 18 19 19 19 19 20 22 23 26 28 29 29 29 28 28 28 28 29 30 30 30 30 29 29 29 30 30 29 27 27 26 25 26 26
7 5 9 17 16 15 14 15 16 17 17 17 18 20 21 23 27 29 30 30 30 31 31 28 28 28 30 30 30 31 30 26 31 29 29 28 27 27 27 26 27 28 29
7 7 8 10 12 11 12 13 15 15 16 17 19 19 22 25 27 28 29 30 31 31 31 30 30 31 30 30 30 30 28 31 31 31 28 26 25 26 28 28 27 29 31
8 7 6 7 10 10 10 12 12 14 15 17 17 18 22 25 27 28 30 31 31 30 31 31 33 32 31 33 30 31 34 30 32 26 22 23 24 26 28 29 27 28 30
7 7 6 5 7 8 9 9 12 15 16 16 15 19 23 25 27 29 30 30 30 30 30 32 34 34 30 31 34 38 38 36 31 25 24 23 28 27 25 30 32 31 29
7 7 6 7 6 6 6 8 10 11 12 13 16 21 26 29 29 30 31 31 32 33 32 32 33 33 34 35 38 40 40 31 24 27 29 29 29 24 33 32 30 32 32
7 7 6 6 5 4 5 7 9 10 13 14 19 24 27 28 28 29 29 29 30 31 31 31 31 33 34 35 39 37 30 28 27 28 31 34 29 30 38 35 34 35 32
6 5 6 4 3 2 4 6 8 12 16 18 22 26 27 27 28 28 27 30 29 29 31 31 31 32 34 36 38 31 32 31 29 27 30 31 27 31 34 36 38 38 39
7 8 6 4 2 2 5 8 12 17 21 22 24 26 27 28 28 28 30 31 29 30 29 29 31 33 34 33 29 38 35 32 32 32 32 31 32 30 34 36 35 40 42
11 7 4 2 2 7 9 12 15 18 20 21 23 24 25 27 29 29 29 28 29 29 30 32 30 31 34 31 34 34 31 29 29 30 30 29 33 37 40 38 36 33 35
10 6 3 3 6 8 11 13 15 17 18 20 22 24 25 28 25 27 28 29 29 28 28 29 30 30 27 32 32 33 32 29 28 28 28 30 36 41 43 39 34 28 41
7 4 2 4 5 8 10 12 15 18 20 22 24 26 27 27 26 28 29 27 27 25 27 26 26 25 28 29 31 32 32 34 32 29 30 33 40 44 39 32 31 36 37
5 3 3 2 5 8 9 13 18 20 21 23 26 27 29 27 25 26 26 25 23 23 23 23 25 27 30 31 30 31 34 33 34 30 34 38 37 32 30 31 35 33 28
4 2 1 4 7 9 12 15 19 20 22 25 27 27 24 23 24 24 22 23 22 22 23 23 24 26 27 26 27 29 32 32 30 31 33 32 31 31 31 31 29 26 27
4 1 3 6 9 12 16 18 20 21 23 25 25 22 21 22 23 24 24 25 24 22 27 27 27 26 25 27 35 36 34 32 33 38 27 26 27 27 27 28 28 29 28
2 3 6 8 12 15 19 21 21 21 23 23 21 21 22 22 23 25 29 26 25 28 27 28 28 29 29 32 35 35 32 31 35 29 22 22 25 24 27 27 29 31 29
Wind_Direction
21 50 46 46 50 49 48 47 50 358 241 234 235 238 237 240 246 252 257 262 266 268 266 266 269 269 267 267 266 266 260 261 262 266 269 267 269 268 263 263 264 263 262
40 28 36 43 48 52 53 53 52 39 24 236 238 237 252 256 259 261 264 268 271 274 273 274 276 274 270 268 264 259 255 256 256 243 257 274 274 262 264 261 257 257 256
60 29 24 37 44 45 47 51 54 54 53 54 236 246 252 266 283 290 287 289 289 286 284 282 279 278 270 265 264 261 250 255 260 249 235 274 241 327 266 249 260 263 263
54 41 28 38 45 48 53 54 53 52 52 55 60 60 54 34 5 357 349 347 340 329 317 305 293 283 274 266 267 262 253 250 251 255 240 243 254 263 279 269 270 272 268
86 62 46 56 55 52 51 51 52 52 52 54 54 54 51 42 34 27 23 21 16 14 11 5 357 325 293 275 269 267 256 251 248 248 252 242 246 250 253 268 271 269 267
113 95 74 65 57 56 54 52 52 49 46 46 44 41 37 31 28 25 24 22 19 15 10 4 4 2 352 328 300 285 274 264 261 261 258 253 245 240 241 251 257 255 272
139 111 91 71 62 56 53 52 51 47 47 47 45 41 40 39 37 30 21 14 8 3 359 356 351 349 345 341 338 329 313 296 286 285 280 274 264 263 263 260 265 267 265
138 140 135 108 72 56 46 48 58 56 44 39 37 35 34 31 28 21 15 10 5 359 353 350 347 344 342 340 338 335 330 319 308 303 301 297 288 279 270 271 276 276 274
169 160 143 99 78 53 63 74 66 53 44 39 36 34 29 24 17 12 8 3 358 352 347 345 342 339 337 336 335 330 326 324 319 315 310 302 299 294 286 276 270 272 285
166 150 144 128 80 91 79 69 58 50 41 36 32 26 20 15 10 5 1 356 350 348 344 342 340 337 336 334 331 324 321 319 317 313 312 308 305 302 296 288 283 277 276
175 173 150 93 101 85 74 63 50 40 33 27 23 17 11 8 3 0 357 353 348 346 342 338 336 332 330 328 324 321 319 316 315 322 316 309 311 307 304 300 294 289 286
173 132 108 111 97 86 72 58 46 36 26 19 15 12 7 2 359 355 352 350 348 346 344 341 337 333 330 326 324 320 316 325 317 316 311 309 316 315 312 308 302 299 295
132 122 110 106 103 86 70 54 39 28 19 12 8 9 6 1 357 355 353 351 348 345 342 339 335 330 330 329 323 317 325 320 316 309 307 314 320 314 312 310 308 305 299
150 135 119 113 100 82 64 45 32 21 14 7 7 7 3 359 356 352 351 349 347 342 339 336 331 329 327 328 324 324 322 317 313 314 315 316 318 314 311 307 307 307 299
158 134 128 119 107 81 58 39 21 11 5 4 8 2 358 355 352 351 348 345 341 337 335 331 330 329 326 324 322 326 324 318 309 313 315 317 323 319 318 320 314 313 314
141 131 130 123 99 91 63 30 14 7 3 7 2 358 356 353 351 348 345 342 338 336 333 330 326 325 323 321 321 323 322 321 322 323 326 322 321 314 324 318 313 313 309
149 145 134 138 136 103 35 16 3 3 6 3 359 356 354 350 346 342 338 335 332 330 326 323 323 320 319 318 319 323 335 329 323 323 324 320 316 323 325 319 315 316 311
127 125 144 120 112 53 20 8 6 3 2 1 357 353 349 343 339 336 332 331 329 325 321 320 320 318 316 317 321 332 333 327 321 322 323 315 317 323 320 318 316 314 311
136 147 151 153 141 7 17 12 3 1 359 356 349 345 342 338 334 331 329 327 323 319 317 318 318 317 316 319 326 332 331 326 324 323 318 313 314 315 319 317 312 307 305
142 146 144 126 42 22 13 5 359 355 350 342 336 336 336 334 328 326 322 319 317 316 316 313 315 315 314 325 322 325 323 319 318 315 315 315 316 316 316 314 306 300 308
157 145 147 77 39 18 359 356 346 343 335 330 329 331 333 331 324 319 319 318 314 314 312 313 314 313 318 318 321 323 322 317 318 321 319 317 315 314 312 308 302 311 313
139 128 96 54 21 356 349 338 331 332 330 329 328 330 331 327 322 322 319 316 315 316 315 313 315 318 318 318 320 322 322 325 326 319 317 313 315 310 309 314 314 315 317
128 121 74 348 343 348 337 326 329 333 332 329 327 327 328 325 324 319 315 314 317 315 314 316 318 318 319 317 320 322 325 328 323 320 319 321 318 320 319 319 319 319 316
153 134 15 329 329 329 325 328 332 334 331 327 325 323 316 320 320 319 315 313 311 313 313 315 314 314 314 316 319 326 328 327 328 326 326 322 324 322 317 315 317 317 315
159 97 315 312 313 322 325 332 335 334 327 324 319 315 317 318 317 316 313 311 308 310 316 316 316 316 316 320 324 328 326 330 333 329 326 326 327 320 319 318 320 321 320
129 308 307 311 317 323 325 330 333 330 325 320 316 314 314 313 314 313 311 310 311 316 317 316 317 319 317 321 325 325 326 334 336 332 321 325 321 318 320 321 319 321 323
Height
760 758 755 753 750 746 743 743 743 743 745 747 749 751 751 752 752 752 754 755 754 754 754 752 751 749 748 746 745 745 745 743 743 743 738 734 730 726 723 723 721 719 718
760 758 757 756 753 750 748 746 745 743 741 743 746 748 750 751 751 752 752 752 751 750 749 747 745 743 741 740 739 739 738 736 737 735 733 727 720 715 712 711 709 706 707
763 763 761 760 757 754 752 750 749 747 745 744 745 747 749 750 750 751 750 750 748 747 744 742 739 737 735 733 732 731 731 729 728 727 729 724 716 711 704 702 702 700 698
766 767 765 762 760 758 757 755 754 753 751 749 748 749 751 751 751 749 748 746 745 743 740 738 735 732 730 727 725 724 722 722 719 718 716 713 710 707 698 695 693 694 692
769 769 768 766 764 762 760 760 759 757 756 754 754 753 753 753 752 750 748 746 744 742 740 737 733 729 727 723 720 718 717 714 712 709 707 703 701 700 697 688 683 682 681
770 769 769 767 766 765 764 764 762 761 761 759 758 756 756 755 752 751 749 747 745 742 739 736 732 729 726 723 719 716 712 709 705 703 700 697 693 689 688 683 677 674 671
768 770 769 768 768 767 766 766 765 765 765 763 761 760 758 757 756 754 752 748 745 742 738 735 730 727 723 720 717 714 710 706 702 698 695 691 686 682 677 673 667 664 660
767 768 769 769 768 768 768 768 767 767 766 765 764 762 761 759 758 755 753 750 746 743 739 734 730 726 721 717 713 709 706 702 698 693 689 684 680 676 673 669 662 651 649
767 768 768 768 769 770 770 770 769 769 768 767 766 764 762 760 758 756 753 750 746 743 738 733 728 723 719 715 710 705 700 696 691 687 682 679 674 670 665 661 660 655 643
767 768 768 770 771 772 772 772 772 771 770 768 766 764 762 760 758 755 752 749 746 741 737 732 727 722 717 713 708 703 698 693 687 682 677 672 668 663 659 655 652 649 644
767 768 769 771 772 774 773 773 772 771 769 767 766 764 762 760 757 754 751 747 743 738 734 730 725 721 716 711 706 700 695 689 684 680 675 668 663 657 654 650 645 639 636
766 769 770 772 773 774 773 772 772 771 770 768 766 763 760 757 754 751 748 744 740 736 732 727 723 719 714 709 704 698 692 687 682 676 671 664 660 655 650 645 641 636 630
767 770 771 772 773 773 773 773 773 772 771 768 766 763 760 758 755 751 747 742 738 734 730 726 720 714 710 705 701 695 690 684 679 672 667 662 657 652 648 642 635 631 624
766 769 771 772 773 773 774 774 774 772 770 767 765 762 760 757 754 750 746 741 737 732 728 723 718 712 707 702 697 692 686 680 674 668 664 659 655 650 644 640 632 625 619
766 769 772 774 775 774 774 774 773 771 770 769 766 764 760 756 753 748 744 740 736 731 726 721 715 710 705 701 695 689 682 675 668 664 659 654 649 646 642 637 628 623 617
766 770 773 774 774 773 772 772 772 772 770 768 765 762 758 755 752 748 744 739 735 730 725 719 714 707 702 697 692 687 679 671 665 660 655 649 645 640 635 630 626 622 616
767 769 772 774 774 773 772 772 772 771 770 768 765 761 758 755 751 748 744 739 734 729 724 720 713 706 701 695 690 683 677 671 665 659 653 646 641 636 630 621 617 612 609
769 773 774 774 775 775 773 773 773 772 770 766 763 760 757 754 751 746 742 738 732 728 723 717 711 704 699 692 687 680 674 667 662 657 650 643 637 634 628 619 611 604 598
770 772 774 775 776 776 773 771 772 770 767 764 761 758 756 752 748 744 740 736 731 727 721 715 708 701 695 690 684 677 670 663 657 653 646 640 634 629 625 618 608 599 587
770 773 775 775 776 775 773 771 770 767 765 763 760 757 754 751 747 744 740 734 730 724 718 712 705 698 692 687 682 677 670 662 655 648 642 636 630 623 618 613 604 593 583
769 771 774 773 773 772 771 769 769 767 765 762 759 755 752 749 746 741 736 731 726 719 715 709 701 694 690 685 680 674 667 659 651 644 637 631 624 616 610 603 597 589 581
769 770 771 770 770 770 770 769 768 766 763 760 756 752 749 746 742 738 732 728 722 716 711 705 698 692 687 682 676 669 663 655 648 640 633 625 618 609 601 594 589 583 576
770 771 769 770 770 770 770 768 766 763 759 756 752 749 745 742 738 734 730 724 719 715 708 702 695 689 683 676 671 664 658 651 644 636 629 621 612 603 596 590 584 576 569
770 769 769 770 770 769 768 766 763 759 756 753 749 745 741 738 735 731 727 721 716 711 706 700 693 687 680 674 667 661 653 646 638 631 622 615 608 602 595 586 579 572 565
767 768 769 769 769 767 765 762 759 756 753 750 745 741 738 734 730 727 723 718 713 710 703 697 690 683 675 670 664 657 650 643 636 627 619 612 606 597 589 581 575 567 559
765 766 767 767 765 763 760 756 755 753 749 745 741 738 735 729 726 722 715 712 709 703 699 693 687 680 674 667 660 654 647 640 634 626 618 612 605 596 587 579 570 563 554